[[{"header":{"parameterUnit":"m.s-1","parameterCategory":1,"la1":30.2991,"la2":30.254,"lo1":-89.0895,"lo2":-89.0444,"dy":0.0017,"dx":0.0017,"nx":28,"ny":28,"refTime":"2025-03-26T21:00:00:Z","depth":0,"parameterNumber":2,"parameterNumberName":"U-component_of_WINDS"},"data":[0,0,0,0,0,0,0,0,0,0,0,0,0,0,0,0,0,0,0,0,0,0,0,0,0,0,0,0,0,0,0,0,0,0,0,0,0,0,0,0,0,0,0,0,0,0,0,0,0,0,0,0,0,0,0,0,0,0,-4.6404,-4.6404,0,-4.6481,-4.6482,-4.6483,-4.6415,-4.6413,-4.641,-4.6407,-4.6487,-4.6492,-4.6496,0,0,0,0,0,0,0,0,0,0,0,0,0,-4.62,-4.6204,-4.6404,-4.6405,-4.6406,-4.6481,-4.6482,-4.6483,-4.6416,-4.6412,-4.6409,-4.6406,-4.6486,-4.6491,-4.6497,0,0,0,0,0,0,0,0,0,0,0,0,0,-4.6284,-4.6205,-4.6403,-4.6381,-4.638,-4.6481,-4.6482,-4.6483,-4.6417,-4.6412,-4.6408,-4.6404,-4.6484,-4.6491,-4.6498,-4.6625,0,0,-4.6519,-4.6522,0,0,0,0,0,0,0,0,-4.6279,-4.6292,-4.6383,-4.6383,-4.6382,-4.6434,-4.6439,-4.6531,-4.6418,-4.6403,-4.6407,-4.6402,-4.6473,-4.6481,-4.6504,-4.6628,-4.6632,-4.652,-4.6524,-4.6527,-4.6529,0,0,0,0,0,0,0,-4.6274,-4.6288,-4.6434,-4.6385,-4.6384,-4.6368,-4.6375,-4.6456,-4.646,-4.6404,-4.6399,-4.6409,-4.6472,-4.6498,-4.6506,-4.6633,-4.652,-4.6526,-4.653,-4.6533,-4.6866,-4.6871,0,0,0,0,0,0,-4.627,-4.6284,-4.6432,-4.6436,-4.6319,-4.6375,-4.6383,-4.6422,-4.6459,-4.6461,-4.6412,-4.6406,-4.6488,-4.6498,-4.6508,-4.6659,-4.6527,-4.6534,-4.6538,-4.6862,-4.6867,-4.6872,0,0,0,0,0,0,-4.6266,-4.6284,-4.6429,-4.6359,-4.6376,-4.6383,-4.6427,-4.6425,-4.6451,-4.6466,-4.6466,-4.6438,-4.6485,-4.6498,-4.6596,-4.6661,-4.6537,-4.6543,-4.6856,-4.6863,-4.687,-4.6962,0,0,0,0,0,0,-4.626,-4.6283,-4.633,-4.636,-4.638,-4.6515,-4.6431,-4.643,-4.6463,-4.6455,-4.649,-4.6492,-4.6483,-4.6586,-4.6603,-4.6668,-4.6549,-4.685,-4.686,-4.6868,-4.6953,-4.6971,-4.6986,0,0,0,0,0,-4.6253,-4.6353,-4.6333,-4.6351,-4.6439,-4.6518,-4.653,-4.6517,-4.6469,-4.6517,-4.6527,-4.6491,-4.6652,-4.6597,-4.6616,-4.6684,-4.6846,-4.6857,-4.6867,-4.6945,-4.6967,-4.6986,0,0,0,0,0,0,-4.6329,-4.6356,-4.6334,-4.6447,-4.6481,-4.6507,-4.6567,-4.654,-4.6589,-4.6579,-4.6562,-4.657,-4.6674,-4.6689,-4.6627,-4.6809,-4.6741,-4.6756,-4.6795,-4.6816,-4.6832,-4.6825,-4.6555,0,0,0,0,0,-4.6359,-4.6421,-4.6441,-4.6539,-4.6557,-4.656,-4.6593,-4.6581,-4.6616,-4.663,-4.6647,-4.6682,-4.6741,-4.678,-4.6834,-4.6956,-4.6963,-4.7013,-4.7029,-4.7043,-4.7055,-4.7121,-4.7143,-4.6906,-4.6906,-4.6906,0,0,-4.6421,-4.6444,-4.6484,-4.6555,-4.6579,-4.6644,-4.6572,-4.6643,-4.6691,-4.6641,-4.6733,-4.6748,-4.6787,-4.6897,-4.6947,-4.6913,-4.7123,-4.7056,-4.7067,-4.7071,-4.7134,-4.7156,-4.7176,-4.6913,-4.6912,-4.6911,0,0,-4.6567,-4.6591,-4.6674,-4.6701,-4.674,-4.6742,-4.6763,-4.6794,-4.6801,-4.6895,-4.6858,-4.6916,-4.7018,-4.7047,-4.7075,-4.7236,-4.7204,-4.7255,-4.734,-4.7405,-4.7424,-4.744,-4.7496,-4.7517,-4.7267,-4.7267,-4.7268,0,-4.6639,-4.6734,-4.672,-4.6794,-4.6827,-4.6786,-4.6871,-4.6898,-4.6953,-4.6977,-4.6939,-4.7067,-4.709,-4.7207,-4.7246,-4.7271,-4.7294,-4.7248,-4.7422,-4.7438,-4.7453,-4.7507,-4.7528,-4.7273,-4.7272,-4.7272,-4.7271,0,-4.682,-4.6887,-4.695,-4.7005,-4.7045,-4.7124,-4.7123,-4.7166,-4.7152,-4.7158,-4.7254,-4.7282,-4.7341,-4.7369,-4.7355,-4.7485,-4.7463,-4.7424,-4.7355,-4.7482,-4.7532,-4.7552,-4.7281,-4.7279,-4.7277,-4.7276,0,0,-4.7011,-4.706,-4.7083,-4.7107,-4.715,-4.7201,-4.728,-4.7339,-4.7375,-4.7417,-4.7482,-4.7571,-4.7536,-4.7568,-4.7558,-4.7615,-4.774,-4.7569,-4.757,-4.7598,-4.7884,-4.791,-4.7934,-4.7721,-4.7725,-4.7728,-4.788,0,-4.7157,-4.7292,-4.7284,-4.7411,-4.7473,-4.7437,-4.7506,-4.754,-4.7549,-4.7603,-4.7614,-4.7676,-4.7626,-4.7645,-4.7701,-4.7713,-4.7796,-4.7702,-4.7781,-4.7783,-4.7769,-4.796,-4.7988,-4.813,-4.7899,-4.7903,-4.7905,0,-4.7343,-4.7391,-4.7525,-4.7559,-4.7585,-4.7646,-4.77,-4.7753,-4.7792,-4.7795,-4.7833,-4.7814,-4.7894,-4.7827,-4.7937,-4.7873,-4.7906,-4.7917,-4.7923,-4.7927,-4.7849,-4.7967,-4.8175,-4.8195,-4.7936,-4.7933,-4.7931,0,-4.7467,-4.7565,-4.7658,-4.7681,-4.7723,-4.7767,-4.7788,-4.7822,-4.7859,-4.7907,-4.7931,-4.7988,-4.8019,-4.8064,-4.8062,-4.8013,-4.8175,-4.8106,-4.8178,-4.8179,-4.8211,-4.8208,-4.8424,-4.8237,-4.8237,-4.8236,-4.8236,0,-4.7628,-4.7711,-4.7714,-4.777,-4.7863,-4.7854,-4.7946,-4.7962,-4.7994,-4.8053,-4.8028,-4.8084,-4.8079,-4.8137,-4.8137,-4.8228,-4.8243,-4.8248,-4.8246,-4.8248,-4.8247,-4.8266,-4.8255,-4.8242,-4.8241,-4.824,-4.8239,0,-4.778,-4.7785,-4.7884,-4.7918,-4.7928,-4.7995,-4.8023,-4.8078,-4.8086,-4.8162,-4.818,-4.8193,-4.826,-4.8264,-4.8341,-4.8341,-4.8452,-4.8441,-4.8438,-4.8435,-4.8506,-4.8498,-4.8739,-4.877,-4.8566,-4.8568,-4.8569,0,-4.7881,-4.7944,-4.7985,-4.8023,-4.8046,-4.8108,-4.8145,-4.8141,-4.8181,-4.8232,-4.828,-4.8345,-4.8396,-4.8506,-4.8522,-4.8582,-4.857,-4.8651,-4.8579,-4.8579,-4.8569,-4.8564,-4.857,-4.8663,-4.8666,-4.8668,-4.8669,0,-4.8059,-4.8059,-4.8114,-4.8171,-4.8217,-4.8261,-4.8303,-4.8336,-4.8337,-4.8384,-4.8452,-4.8492,-4.8572,-4.8636,-4.8695,-4.8717,-4.8693,-4.8693,-4.8712,-4.8713,-4.8708,-4.871,-4.8473,-4.8686,-4.8684,-4.8683,-4.8682,-4.8681,-4.8187,-4.8241,-4.8279,-4.8341,-4.8373,-4.8413,-4.8465,-4.8482,-4.8538,-4.8602,-4.8598,-4.8673,-4.8713,-4.8789,-4.8816,-4.8876,-4.8848,-4.8877,-4.8884,-4.889,-4.8896,-4.8702,-4.8887,-4.8887,-4.8886,-4.8886,-4.8885,0,-4.8361,-4.8385,-4.8443,-4.8502,-4.8552,-4.8528,-4.8573,-4.8616,-4.8683,-4.8722,-4.8774,-4.8853,-4.8917,-4.894,-4.9002,-4.9046,-4.9036,-4.9062,-4.9057,-4.9062,-4.8918,-4.8894,-4.9068,-4.9068,-4.9068,-4.9068,-4.9068,-4.9068,-4.8458,-4.8548,-4.8554,-4.8661,-4.8684,-4.8757,-4.8786,-4.8823,-4.8854,-4.8944,-4.8996,-4.9012,-4.9045,-4.911,-4.9167,-4.9173,-4.9196,-4.9225,-4.9226,-4.9091,-4.9072,-4.9054,-4.9031,-4.9231,-4.9231,-4.9364,-4.9366,-4.9366]},{"header":{"parameterUnit":"m.s-1","parameterCategory":1,"la1":30.2991,"la2":30.254,"lo1":-89.0895,"lo2":-89.0444,"dy":0.0017,"dx":0.0017,"nx":28,"ny":28,"refTime":"2025-03-26T21:00:00:Z","depth":0,"parameterNumber":3,"parameterNumberName":"V-component_of_WINDS"},"data":[0,0,0,0,0,0,0,0,0,0,0,0,0,0,0,0,0,0,0,0,0,0,0,0,0,0,0,0,0,0,0,0,0,0,0,0,0,0,0,0,0,0,0,0,0,0,0,0,0,0,0,0,0,0,0,0,0,0,1.705,1.7051,0,1.7143,1.7144,1.7145,1.72,1.72,1.7201,1.7201,1.7292,1.7294,1.7296,0,0,0,0,0,0,0,0,0,0,0,0,0,1.6916,1.6918,1.705,1.7051,1.7052,1.7143,1.7144,1.7146,1.72,1.7201,1.7201,1.7201,1.7291,1.7293,1.7296,0,0,0,0,0,0,0,0,0,0,0,0,0,1.6988,1.6919,1.705,1.7091,1.7095,1.7143,1.7145,1.7146,1.72,1.7201,1.7201,1.7201,1.729,1.7293,1.7296,1.7309,0,0,1.7306,1.7308,0,0,0,0,0,0,0,0,1.6984,1.6993,1.7083,1.7088,1.7093,1.7161,1.7131,1.7201,1.72,1.716,1.7201,1.7201,1.7247,1.7254,1.7271,1.7313,1.7317,1.7307,1.7309,1.731,1.7311,0,0,0,0,0,0,0,1.6979,1.6989,1.7087,1.7085,1.7091,1.7103,1.7114,1.7144,1.72,1.7164,1.7168,1.7178,1.725,1.7267,1.7273,1.7319,1.7307,1.7309,1.7311,1.7313,1.738,1.738,0,0,0,0,0,0,1.6968,1.6985,1.7084,1.709,1.7039,1.7106,1.7117,1.7138,1.72,1.721,1.7178,1.7181,1.7262,1.7269,1.7277,1.7298,1.731,1.7313,1.7315,1.738,1.738,1.738,0,0,0,0,0,0,1.6965,1.6976,1.708,1.7039,1.7053,1.7107,1.7131,1.714,1.7158,1.7211,1.7221,1.7186,1.7262,1.7272,1.7302,1.7302,1.7315,1.7318,1.738,1.738,1.738,1.7339,0,0,0,0,0,0,1.6961,1.6975,1.6981,1.7038,1.7055,1.7104,1.7131,1.7142,1.7164,1.7168,1.7221,1.723,1.7263,1.7297,1.7305,1.7307,1.732,1.7381,1.738,1.738,1.7341,1.7338,1.7335,0,0,0,0,0,1.6956,1.6964,1.6981,1.6992,1.7063,1.7104,1.7113,1.7153,1.7163,1.717,1.7205,1.7228,1.7301,1.7299,1.7309,1.7311,1.7381,1.738,1.738,1.7342,1.7338,1.7335,0,0,0,0,0,0,1.6902,1.6972,1.6991,1.7018,1.7055,1.7113,1.7122,1.7147,1.718,1.7183,1.7229,1.724,1.7266,1.7292,1.7289,1.7329,1.7343,1.7345,1.7311,1.7308,1.7305,1.7298,1.7323,0,0,0,0,0,1.6894,1.6922,1.6981,1.6999,1.7017,1.7066,1.7085,1.7113,1.7152,1.7168,1.7205,1.7241,1.7272,1.7291,1.7323,1.7345,1.7358,1.7352,1.7349,1.7346,1.7347,1.7363,1.7361,1.7379,1.7379,1.7379,0,0,1.6875,1.6917,1.6932,1.6989,1.7021,1.7049,1.7079,1.7106,1.7128,1.7171,1.7203,1.7231,1.7275,1.7302,1.7315,1.7324,1.7345,1.7346,1.7343,1.7345,1.7362,1.7361,1.7359,1.7378,1.7378,1.7378,0,0,1.6858,1.6892,1.6912,1.6944,1.6993,1.7027,1.7032,1.7087,1.7108,1.7141,1.7176,1.7201,1.7253,1.7284,1.7306,1.7304,1.7327,1.7312,1.7297,1.7312,1.731,1.7309,1.731,1.7309,1.7313,1.7313,1.7313,0,1.6829,1.6874,1.6918,1.6946,1.697,1.7014,1.7035,1.7064,1.7119,1.7135,1.7145,1.7214,1.7246,1.7281,1.7281,1.7297,1.7305,1.7306,1.7307,1.7307,1.7306,1.7307,1.7307,1.7311,1.7311,1.7311,1.7312,0,1.6837,1.6867,1.6877,1.6934,1.696,1.6983,1.7031,1.7052,1.7078,1.7111,1.7145,1.7185,1.7227,1.7238,1.7262,1.7278,1.7282,1.7299,1.7314,1.7302,1.7304,1.7305,1.7308,1.7309,1.7309,1.731,0,0,1.6785,1.6869,1.6871,1.6899,1.6958,1.6982,1.7008,1.7052,1.7069,1.7107,1.713,1.7175,1.7192,1.7218,1.7246,1.7259,1.7257,1.7275,1.7277,1.7271,1.7279,1.7267,1.7266,1.7274,1.7274,1.7274,1.7276,0,1.6776,1.6828,1.687,1.6905,1.6935,1.6979,1.7002,1.704,1.7072,1.7101,1.7136,1.7168,1.7187,1.7203,1.7218,1.7254,1.726,1.7255,1.7296,1.7297,1.7284,1.7267,1.7253,1.7253,1.7277,1.7277,1.7277,0,1.6773,1.6812,1.6851,1.691,1.6924,1.6944,1.6989,1.7016,1.7061,1.7084,1.7114,1.7145,1.7175,1.7188,1.723,1.7226,1.7246,1.7266,1.7267,1.7273,1.7286,1.7272,1.7253,1.7253,1.7278,1.7278,1.7278,0,1.6733,1.6795,1.6827,1.6849,1.6918,1.6932,1.6961,1.7007,1.7031,1.707,1.7086,1.7127,1.7149,1.718,1.7221,1.7226,1.7259,1.7275,1.7279,1.7278,1.7283,1.7282,1.7268,1.7295,1.7295,1.7295,1.7295,0,1.6719,1.6741,1.6811,1.6831,1.6857,1.6906,1.6931,1.6964,1.7005,1.7032,1.7071,1.7095,1.7148,1.7178,1.7211,1.7242,1.7251,1.727,1.7278,1.7267,1.7265,1.728,1.7281,1.7295,1.7295,1.7295,1.7295,0,1.6679,1.6726,1.6765,1.6828,1.6845,1.6862,1.6916,1.6937,1.6972,1.7006,1.7016,1.7071,1.7109,1.7154,1.7205,1.7228,1.7256,1.7268,1.7242,1.7247,1.7248,1.7248,1.7243,1.7245,1.727,1.727,1.7269,0,1.6667,1.6686,1.6753,1.6775,1.6804,1.6838,1.6864,1.6914,1.6939,1.6994,1.7008,1.705,1.7086,1.7145,1.7189,1.7229,1.7243,1.7239,1.7249,1.7238,1.7244,1.7243,1.7246,1.7235,1.7235,1.7234,1.7234,0,1.6642,1.6665,1.6702,1.6749,1.6779,1.6817,1.6857,1.6872,1.693,1.6956,1.6997,1.7025,1.7081,1.7122,1.7169,1.7198,1.7226,1.7231,1.7234,1.7222,1.7207,1.7217,1.7235,1.7231,1.7231,1.7231,1.7231,1.7231,1.6616,1.6636,1.6687,1.6728,1.6764,1.6801,1.6824,1.6864,1.69,1.695,1.6977,1.7018,1.7065,1.7131,1.7159,1.7192,1.7201,1.7205,1.7206,1.7207,1.7204,1.7202,1.72,1.72,1.7201,1.7201,1.7201,0,1.6594,1.663,1.6667,1.6723,1.6756,1.6782,1.6828,1.6852,1.6889,1.6931,1.6967,1.7015,1.7056,1.7104,1.7149,1.7165,1.7179,1.7175,1.7175,1.7181,1.7193,1.7186,1.7164,1.7164,1.7164,1.7164,1.7164,1.7164,1.6586,1.6622,1.6652,1.6707,1.6742,1.6784,1.6809,1.6843,1.6878,1.6931,1.6966,1.6998,1.7043,1.7092,1.7131,1.7144,1.7159,1.7151,1.7168,1.7177,1.718,1.7183,1.7177,1.7153,1.7153,1.7154,1.7154,1.7154]}]]